Location: Carrières
(48.9495°N, 2.0407°E)
Time: 06:21:28
(UTC+00:00)

Vanguard 1 Rocket - Pass Details

Date: 16 April 2024
Orbit: 650 x 4220 km, 34.3° (Epoch: 27 May)

Event Time Altitude Azimuth Distance (km) Brightness Sun altitude
Rises 00:49:49 0° 266° (W) 5,035 11.0 -29.4°
Enters shadow 00:52:08 - 259° (WSW) 4,647 10.7 -29.3°
Exits shadow 01:16:18 14° 162° (SSE) 6,357 11.2 -27.9°
Drops below altitude 10° 01:19:23 10° 156° (SSE) 6,926 11.5 -27.7°
Sets 01:26:54 0° 147° (SSE) 8,294 12.0 -27.2°
